USA 107 (DSP 17) 1 23435U 94084A 21060.45339222 -.00000167 00000-0 00000-0 0 9996 2 23435 14.5791 9.6743 0001400 49.4615 167.1238 1.00273250 13562 IUS R/B(2) 1 23438U 94084D 21059.79104605 -.00000284 00000-0 00000-0 0 9999 2 23438 14.3642 8.6923 0006077 38.7724 321.2934 1.01183668 6645